Hourly Data Report for October 29, 2013

All times are specified in Local Standard Time (LST). Add 1 hour to adjust for Daylight Saving Time where and when it is observed.

CAPE DORSET A
NUNAVUT

64°13'49.000" N
76°31'30.000" W
48.20 m
2400637
71366
YTE

Download Data

Hourly Data (October 2013)
Hourly Data Report for October 29, 2013
Temp Definition
°C
Dew Point Temp Definition
°C
Rel Hum Definition
%
Wind Dir Definition
10's deg

Wind Spd Definition
km/h
Visibility Definition
km
Stn Press Definition
kPa
Hmdx Definition


Wind Chill Definition


Weather Definition


TIME
00:00 Legend Double Dagger -12.3 -15.6 77 26 13 16.1 99.50   -19 LegendNANA
01:00 Legend Double Dagger -11.9 -13.8 86 29 15 16.1 99.53   -19 LegendNANA
02:00 Legend Double Dagger -12.7 -14.2 89 27 18 16.1 99.53   -21 LegendNANA
03:00 Legend Double Dagger -10.7 -12.8 85 28 24 16.1 99.54   -19 LegendNANA
04:00 Legend Double Dagger -10.8 -13.6 80 29 15 16.1 99.57   -18 LegendNANA
05:00 Legend Double Dagger -11.2 -13.8 81 28 21 16.1 99.58   -20 LegendNANA
06:00 Legend Double Dagger -11.8 -14.6 80 28 21 16.1 99.61   -20 LegendNANA
07:00 Legend Double Dagger -12.7 -15.3 81 26 13 16.1 99.65   -20 LegendNANA
08:00 Legend Double Dagger -12.5 -15.6 78 26 11 16.1 99.66   -19 LegendNANA
09:00 Legend Double Dagger -11.8 -15.7 73 27 17 16.1 99.64   -19 LegendNANA
10:00 Legend Double Dagger -11.5 -15.2 75 26 15 16.1 99.63   -19 LegendNANA
11:00 Legend Double Dagger -11.5 -15.1 75 26 9 16.1 99.66   -17 LegendNANA
12:00 Legend Double Dagger -10.2 -14.3 72 27 9 16.1 99.67   -15 LegendNANA
13:00 Legend Double Dagger -10.7 -14.2 76 25 11 16.1 99.67   -16 LegendNANA
14:00 Legend Double Dagger -10.0 -14.1 72 27 9 16.1 99.70   -15 LegendNANA
15:00 Legend Double Dagger -9.6 -14.6 68 25 8 16.1 99.72   -14 LegendNANA
16:00 Legend Double Dagger -9.0 -14.1 67 22 8 16.1 99.74   -13 LegendNANA
17:00 Legend Double Dagger -8.2 -13.9 64 21 8 16.1 99.76   -12 LegendNANA
18:00 Legend Double Dagger -8.6 -13.3 69 19 9 16.1 99.79   -13 LegendNANA
19:00 Legend Double Dagger -8.4 -11.9 76 22 8 16.1 99.81   -13 LegendNANA
20:00 Legend Double Dagger -8.1 -12.3 72 23 9 16.1 99.82   -13 LegendNANA
21:00 Legend Double Dagger -8.1 -12.8 69 22 8 16.1 99.81   -12 LegendNANA
22:00 Legend Double Dagger -10.0 -13.7 75 19 9 16.1 99.81   -15 LegendNANA
23:00 Legend Double Dagger -9.8 -13.5 75 19 11 16.1 99.79   -15 LegendNANA

Notes on Data Quality.

Legend

  • E = Estimated
  • M = Missing
  • NA = Not Available
  • ‡ = Partner data that is not subject to review by the National Climate Archives
Date modified: